[[{"header":{"parameterUnit":"m.s-1","parameterCategory":1,"la1":30.2991,"la2":30.254,"lo1":-89.0895,"lo2":-89.0444,"dy":0.0017,"dx":0.0017,"nx":28,"ny":28,"refTime":"2024-05-24T03:00:00:Z","depth":0,"parameterNumber":2,"parameterNumberName":"U-component_of_WINDS"},"data":[0,0,0,0,0,0,0,0,0,0,0,0,0,0,0,0,0,0,0,0,0,0,0,0,0,0,0,0,0,0,0,0,0,0,0,0,0,0,0,0,0,0,0,0,0,0,0,0,0,0,0,0,0,0,0,0,0,0,-0.2092,-0.209,0,-0.197,-0.1968,-0.1967,-0.1976,-0.1977,-0.1979,-0.1981,-0.185,-0.1845,-0.1839,0,0,0,0,0,0,0,0,0,0,0,0,0,-0.2326,-0.2321,-0.2092,-0.209,-0.2089,-0.197,-0.1968,-0.1967,-0.1975,-0.1978,-0.198,-0.1982,-0.1851,-0.1845,-0.1839,0,0,0,0,0,0,0,0,0,0,0,0,0,-0.2216,-0.232,-0.2092,-0.2079,-0.2077,-0.197,-0.1968,-0.1966,-0.1975,-0.1978,-0.198,-0.1983,-0.1853,-0.1846,-0.1838,-0.1735,0,0,-0.1814,-0.1811,0,0,0,0,0,0,0,0,-0.2222,-0.2207,-0.2082,-0.208,-0.2077,-0.1991,-0.2003,-0.1889,-0.1974,-0.2013,-0.1981,-0.1984,-0.1894,-0.1883,-0.1854,-0.1729,-0.1723,-0.1814,-0.1809,-0.1806,-0.1803,0,0,0,0,0,0,0,-0.223,-0.2212,-0.2043,-0.208,-0.2077,-0.2077,-0.2064,-0.1981,-0.1939,-0.201,-0.201,-0.1996,-0.1893,-0.1861,-0.1851,-0.1721,-0.1814,-0.1807,-0.1802,-0.1799,-0.1504,-0.1501,0,0,0,0,0,0,-0.2241,-0.2219,-0.2047,-0.204,-0.2158,-0.2071,-0.2057,-0.2016,-0.1941,-0.1932,-0.1994,-0.1997,-0.1873,-0.186,-0.1846,-0.1719,-0.1806,-0.1798,-0.1794,-0.1507,-0.1503,-0.15,0,0,0,0,0,0,-0.2246,-0.2226,-0.2052,-0.2129,-0.2107,-0.2064,-0.2018,-0.2012,-0.198,-0.1929,-0.192,-0.197,-0.1875,-0.1857,-0.1763,-0.1715,-0.1795,-0.1788,-0.1511,-0.1506,-0.1502,-0.1465,0,0,0,0,0,0,-0.2253,-0.2228,-0.2189,-0.2128,-0.2103,-0.1972,-0.2015,-0.2007,-0.1968,-0.197,-0.1904,-0.1895,-0.1876,-0.1774,-0.1755,-0.1706,-0.1782,-0.1515,-0.1509,-0.1503,-0.1471,-0.146,-0.1451,0,0,0,0,0,-0.2261,-0.2183,-0.2187,-0.2167,-0.2055,-0.197,-0.1955,-0.1936,-0.1964,-0.1924,-0.1891,-0.1897,-0.1724,-0.1765,-0.1743,-0.169,-0.1518,-0.151,-0.1504,-0.1475,-0.1462,-0.1451,0,0,0,0,0,0,-0.2237,-0.2175,-0.2179,-0.2079,-0.203,-0.1971,-0.1921,-0.1923,-0.1863,-0.1868,-0.1846,-0.183,-0.1735,-0.1704,-0.175,-0.1586,-0.1624,-0.1612,-0.161,-0.1597,-0.1588,-0.1596,-0.1775,0,0,0,0,0,-0.2221,-0.2159,-0.2107,-0.2024,-0.1999,-0.1964,-0.1926,-0.1916,-0.1863,-0.1842,-0.1802,-0.1748,-0.1682,-0.1638,-0.1574,-0.1467,-0.1451,-0.142,-0.141,-0.1402,-0.1392,-0.1331,-0.1315,-0.1477,-0.1477,-0.1477,0,0,-0.2185,-0.2144,-0.2105,-0.2018,-0.1979,-0.1913,-0.1946,-0.1876,-0.1826,-0.183,-0.1739,-0.1708,-0.1646,-0.1545,-0.1498,-0.1515,-0.1344,-0.1393,-0.1388,-0.1381,-0.1322,-0.1307,-0.1293,-0.1472,-0.1473,-0.1473,0,0,-0.2087,-0.205,-0.1976,-0.1936,-0.1877,-0.1854,-0.1837,-0.1777,-0.1757,-0.1666,-0.1668,-0.1607,-0.1493,-0.1449,-0.1412,-0.1297,-0.13,-0.1276,-0.1224,-0.1165,-0.1152,-0.1141,-0.1097,-0.1082,-0.1266,-0.1266,-0.1266,0,-0.2049,-0.1952,-0.1937,-0.1865,-0.1826,-0.183,-0.1753,-0.1715,-0.1637,-0.1608,-0.163,-0.1487,-0.1446,-0.1333,-0.1305,-0.1276,-0.1252,-0.1283,-0.1156,-0.1144,-0.1133,-0.1091,-0.1075,-0.1264,-0.1264,-0.1264,-0.1264,0,-0.1908,-0.184,-0.1787,-0.1714,-0.1669,-0.1595,-0.1567,-0.1522,-0.1516,-0.1491,-0.1396,-0.1348,-0.1273,-0.1246,-0.1239,-0.1132,-0.1144,-0.1161,-0.1198,-0.1115,-0.1076,-0.106,-0.126,-0.1261,-0.1262,-0.1262,0,0,-0.1789,-0.1709,-0.1689,-0.1655,-0.159,-0.1537,-0.1463,-0.1392,-0.1353,-0.1299,-0.1235,-0.1139,-0.1154,-0.1111,-0.1099,-0.1048,-0.0957,-0.1071,-0.1069,-0.1049,-0.0833,-0.0819,-0.0801,-0.096,-0.0957,-0.0955,-0.0838,0,-0.1682,-0.1552,-0.1537,-0.142,-0.1356,-0.1359,-0.1294,-0.1246,-0.1221,-0.1161,-0.1132,-0.1063,-0.109,-0.1064,-0.1013,-0.0979,-0.0913,-0.0988,-0.0897,-0.0894,-0.091,-0.0781,-0.0766,-0.0658,-0.0822,-0.082,-0.0818,0,-0.1539,-0.1483,-0.1361,-0.1304,-0.1277,-0.1219,-0.1152,-0.1096,-0.1041,-0.1026,-0.0979,-0.0973,-0.0894,-0.0937,-0.0826,-0.0877,-0.0839,-0.0817,-0.0812,-0.0801,-0.0849,-0.0764,-0.0623,-0.0606,-0.0794,-0.0796,-0.0797,0,-0.1462,-0.1356,-0.1269,-0.124,-0.1172,-0.1131,-0.11,-0.1048,-0.1006,-0.0947,-0.092,-0.0852,-0.0814,-0.0761,-0.0736,-0.077,-0.0626,-0.0667,-0.0609,-0.0609,-0.0576,-0.0578,-0.0425,-0.0556,-0.0556,-0.0556,-0.0557,0,-0.1342,-0.1267,-0.1233,-0.1179,-0.1094,-0.1076,-0.0992,-0.0962,-0.0916,-0.0855,-0.0853,-0.0795,-0.0768,-0.0705,-0.0686,-0.0595,-0.0579,-0.0562,-0.0557,-0.0561,-0.0563,-0.0534,-0.054,-0.0552,-0.0553,-0.0554,-0.0555,0,-0.1241,-0.1215,-0.112,-0.1064,-0.1048,-0.0988,-0.0939,-0.0885,-0.0861,-0.0783,-0.0764,-0.0724,-0.065,-0.0622,-0.0531,-0.0518,-0.0413,-0.0415,-0.0432,-0.043,-0.0372,-0.0377,-0.0193,-0.0167,-0.0318,-0.0316,-0.0315,0,-0.1165,-0.1107,-0.1045,-0.1005,-0.0974,-0.0909,-0.0867,-0.0847,-0.0802,-0.0735,-0.0689,-0.0616,-0.0556,-0.0438,-0.0399,-0.0329,-0.0328,-0.0269,-0.0318,-0.0322,-0.0324,-0.0327,-0.032,-0.0259,-0.0257,-0.0256,-0.0255,0,-0.1032,-0.1023,-0.0963,-0.0898,-0.0848,-0.0795,-0.0744,-0.0711,-0.0683,-0.0633,-0.0558,-0.0512,-0.042,-0.0347,-0.0275,-0.0241,-0.0242,-0.0241,-0.0223,-0.0224,-0.0235,-0.0226,-0.0404,-0.0244,-0.0245,-0.0246,-0.0247,-0.0247,-0.0939,-0.0887,-0.0836,-0.0768,-0.0728,-0.0681,-0.0628,-0.0597,-0.0535,-0.046,-0.0452,-0.0371,-0.0316,-0.022,-0.0184,-0.0119,-0.0134,-0.0109,-0.0102,-0.0095,-0.009,-0.0248,-0.0106,-0.0106,-0.0106,-0.0107,-0.0107,0,-0.0804,-0.0771,-0.071,-0.0639,-0.0586,-0.0595,-0.0539,-0.0493,-0.0423,-0.0372,-0.0314,-0.0227,-0.0156,-0.0113,-0.0041,0.0003,0.0005,0.0022,0.002,0.0029,-0.0082,-0.0103,0.0019,0.0019,0.0019,0.0019,0.0019,0.0019,-0.0727,-0.064,-0.0624,-0.0516,-0.0483,-0.0405,-0.0372,-0.0327,-0.0287,-0.0191,-0.0133,-0.0106,-0.0057,0.0018,0.0084,0.0095,0.0123,0.0142,0.0152,0.0049,0.0036,0.0024,0.0004,0.0147,0.0147,0.0257,0.0258,0.0259]},{"header":{"parameterUnit":"m.s-1","parameterCategory":1,"la1":30.2991,"la2":30.254,"lo1":-89.0895,"lo2":-89.0444,"dy":0.0017,"dx":0.0017,"nx":28,"ny":28,"refTime":"2024-05-24T03:00:00:Z","depth":0,"parameterNumber":3,"parameterNumberName":"V-component_of_WINDS"},"data":[0,0,0,0,0,0,0,0,0,0,0,0,0,0,0,0,0,0,0,0,0,0,0,0,0,0,0,0,0,0,0,0,0,0,0,0,0,0,0,0,0,0,0,0,0,0,0,0,0,0,0,0,0,0,0,0,0,0,4.8413,4.8413,0,4.8415,4.8415,4.8415,4.8334,4.8332,4.833,4.8328,4.8329,4.8331,4.8333,0,0,0,0,0,0,0,0,0,0,0,0,0,4.8339,4.8341,4.8413,4.8413,4.8413,4.8415,4.8415,4.8415,4.8334,4.8332,4.8329,4.8327,4.8328,4.8331,4.8333,0,0,0,0,0,0,0,0,0,0,0,0,0,4.8359,4.8341,4.8413,4.8373,4.8369,4.8415,4.8415,4.8415,4.8335,4.8332,4.8328,4.8325,4.8327,4.833,4.8333,4.8416,0,0,4.8343,4.8344,0,0,0,0,0,0,0,0,4.8358,4.8362,4.8379,4.8376,4.8372,4.8371,4.8389,4.8415,4.8336,4.8348,4.8328,4.8324,4.8345,4.8347,4.8354,4.8416,4.8416,4.8343,4.8345,4.8346,4.8347,0,0,0,0,0,0,0,4.8357,4.8361,4.8413,4.8379,4.8375,4.8355,4.8354,4.8393,4.8365,4.8347,4.8341,4.8342,4.8343,4.8351,4.8353,4.8417,4.8343,4.8346,4.8347,4.8349,4.8548,4.8551,0,0,0,0,0,0,4.8361,4.8361,4.8413,4.8413,4.8357,4.8359,4.8358,4.8374,4.8364,4.8359,4.8345,4.8338,4.8348,4.835,4.8353,4.8451,4.8346,4.8349,4.8351,4.8544,4.8549,4.8552,0,0,0,0,0,0,4.8359,4.8366,4.8413,4.8385,4.839,4.8363,4.8383,4.8376,4.8384,4.8363,4.8357,4.8359,4.8345,4.8349,4.8402,4.845,4.835,4.8353,4.854,4.8546,4.8551,4.8647,0,0,0,0,0,0,4.8358,4.8366,4.8398,4.8387,4.8392,4.8462,4.8385,4.8378,4.839,4.8382,4.8374,4.837,4.8343,4.8397,4.8405,4.8452,4.8355,4.8536,4.8543,4.8549,4.8639,4.8654,4.8668,0,0,0,0,0,4.8355,4.8425,4.84,4.8407,4.8431,4.8465,4.8468,4.8436,4.8394,4.8426,4.8412,4.837,4.8443,4.8404,4.8411,4.846,4.8533,4.8541,4.8548,4.8633,4.8651,4.8667,0,0,0,0,0,0,4.8442,4.8422,4.8395,4.8462,4.8466,4.8451,4.849,4.8456,4.8471,4.8463,4.8422,4.8421,4.848,4.8475,4.8431,4.854,4.8481,4.849,4.8542,4.856,4.8574,4.8575,4.8358,0,0,0,0,0,4.8469,4.8499,4.848,4.8541,4.8544,4.8517,4.8531,4.8506,4.8508,4.8509,4.8498,4.8502,4.8525,4.8542,4.8562,4.8637,4.8635,4.8674,4.8689,4.8701,4.871,4.875,4.8768,4.8578,4.8578,4.8578,0,0,4.8525,4.8518,4.8539,4.8558,4.8558,4.859,4.8519,4.8556,4.8579,4.8514,4.8564,4.8556,4.8557,4.8622,4.865,4.8619,4.8762,4.871,4.872,4.8723,4.876,4.8778,4.8794,4.8583,4.8582,4.8581,0,0,4.8644,4.8641,4.8693,4.8694,4.8694,4.8676,4.8688,4.8679,4.8671,4.872,4.8673,4.8699,4.874,4.8744,4.8751,4.887,4.8833,4.8878,4.8953,4.8993,4.9008,4.9021,4.9066,4.9082,4.8887,4.8887,4.8887,0,4.8714,4.876,4.8723,4.8763,4.8774,4.8716,4.8768,4.8771,4.8778,4.8787,4.8752,4.8803,4.8799,4.8865,4.8894,4.8901,4.8914,4.8879,4.9009,4.9022,4.9033,4.9075,4.9092,4.8893,4.8892,4.8891,4.8891,0,4.8846,4.8879,4.8921,4.893,4.8944,4.899,4.896,4.8979,4.8952,4.8937,4.8988,4.8982,4.9,4.9013,4.8987,4.9075,4.9056,4.9016,4.8956,4.9058,4.9097,4.9112,4.8901,4.8899,4.8897,4.8896,0,0,4.9022,4.901,4.9026,4.903,4.9026,4.905,4.9093,4.9112,4.9129,4.9136,4.9172,4.9207,4.917,4.9178,4.9152,4.9186,4.9284,4.9142,4.9141,4.917,4.9381,4.9414,4.9433,4.9258,4.9261,4.9263,4.9382,0,4.9139,4.9213,4.918,4.9257,4.9288,4.9233,4.9271,4.9272,4.9259,4.9283,4.9268,4.9295,4.9243,4.9247,4.9279,4.9265,4.9326,4.9256,4.9292,4.9294,4.9296,4.9453,4.9486,4.9599,4.9397,4.9399,4.9401,0,4.9286,4.9299,4.938,4.9371,4.9382,4.9417,4.9431,4.9454,4.9455,4.9443,4.9452,4.9417,4.9459,4.9397,4.9454,4.9408,4.942,4.9415,4.9419,4.9423,4.9355,4.9463,4.9634,4.9652,4.9424,4.9422,4.9421,0,4.9408,4.9446,4.9499,4.9503,4.9494,4.952,4.9517,4.9514,4.9527,4.954,4.9548,4.9565,4.9574,4.9588,4.9559,4.9517,4.9621,4.9557,4.9613,4.9614,4.964,4.9639,4.9818,4.9644,4.9644,4.9644,4.9643,0,4.9544,4.9596,4.9554,4.9587,4.9643,4.9605,4.9662,4.9653,4.9651,4.9681,4.9634,4.9663,4.9622,4.9648,4.9625,4.9677,4.9681,4.9673,4.9667,4.9679,4.968,4.9688,4.968,4.9648,4.9647,4.9646,4.9646,0,4.9691,4.9665,4.972,4.9706,4.9704,4.9746,4.9734,4.9764,4.9747,4.9786,4.9793,4.9767,4.9794,4.9766,4.9791,4.9776,4.9846,4.9827,4.9847,4.9842,4.9901,4.9897,5.0093,5.0117,4.9927,4.9929,4.993,0,4.9781,4.9819,4.981,4.9827,4.9827,4.9855,4.9868,4.9831,4.9847,4.9851,4.9881,4.9904,4.9921,4.9967,4.995,4.997,4.9952,5.0019,4.9955,4.9966,4.9956,4.9955,4.9959,5.0034,5.0036,5.0038,5.0039,0,4.9943,4.9928,4.9949,4.9966,4.9983,4.9995,5.0002,5.0019,4.9981,5.0001,5.0028,5.0042,5.0068,5.0092,5.0106,5.0103,5.0066,5.0059,5.0074,5.0088,5.0098,5.0095,4.9885,5.0056,5.0054,5.0053,5.0052,5.0051,5.0065,5.0098,5.0096,5.0121,5.0123,5.0131,5.0159,5.0146,5.0168,5.0187,5.0163,5.0197,5.0197,5.0212,5.0213,5.0239,5.0211,5.0231,5.0237,5.0243,5.0253,5.0092,5.0241,5.0241,5.024,5.024,5.024,0,5.0227,5.0223,5.0247,5.0259,5.0279,5.0241,5.0247,5.0267,5.0298,5.03,5.0318,5.035,5.0373,5.0357,5.0377,5.0401,5.0385,5.0408,5.0407,5.0407,5.0276,5.0263,5.0421,5.0421,5.0421,5.0421,5.0421,5.0421,5.0314,5.0367,5.0352,5.0405,5.04,5.0434,5.0441,5.0448,5.045,5.0488,5.0507,5.0497,5.0492,5.0511,5.0531,5.0525,5.0536,5.0566,5.0555,5.0434,5.0416,5.0399,5.0386,5.0568,5.0568,5.0683,5.0684,5.0685]}]]